sat.trackr.live / text

‹ back to catalog

STARLINK-3805

NORAD 52377 · 2022-045AY

PAYLOAD ACTIVE UNKNOWN

§ Identity

Operator
Country
US
Launch date
2022-04-29
Launch site
AFETR
Launch vehicle
Mass (kg)
RCS (m²)

Purposes: comms

External: N2YO · Heavens-Above · Gunter

§ Orbital elements

Epoch: 2026-09-20T03:41:29.685120Z

Period
93.85 min
Inclination
53.1598°
Eccentricity
0.0000925
Mean motion
15.34393099 rev/d
Perigee alt
462.1 km
Apogee alt
463.4 km
Semi-major
6,840.9 km
B*
-8.3679e-6
RAAN
26.9910°
Arg perigee
77.5481°
Mean anomaly
282.5625°
Rev number
24,539

§ Raw data

STARLINK-38051 52377U 22045AY  26263.15381580 -.00000659  00000+0 -83679-5 0  99962 52377  53.1598  26.9910 0000925  77.5481 282.5625 15.34393099245391

JSON: /api/v1/satellites/52377 · /tle

For live sub-satellite position, see the globe view (requires WebGL).

§ Visibility from observer

Set your observer location to see the next 7 days of passes ≥ 10°. The values pass through the URL so the page stays shareable.

No JS? Fill the form by hand. The geolocation button needs JavaScript.